Weather in Rhodes

Greece     36°26′45″N   28°14′11″E
temp.,
°C
wind,
m/s
gust,
m/s
humid.,
%
clouds,
%
prec.,
mm/h
press.,
hPa
HPBL,
m
28 july, wed
wed2800:00+28ne44720 0.0 100948
03:00+28nw22680 0.0 100814
06:00+27nw22650 0.0 100815
09:00+28nnw22580 0.0 100820
12:00+28w44580 0.0 100854
15:00+30w44610 0.0 100745
18:00+30wsw811530 0.0 1006104
21:00+27w45710 0.0 100678
29 july, thu
thu2900:00+27nnw33730 0.0 100633
03:00+27wnw44730 0.0 100578
06:00+28nw22610 0.0 100513
09:00+28wnw33610 0.0 100530
12:00+28w44610 0.0 100545
15:00+31w67510 0.0 100350
18:00+30se55680 0.0 100253
21:00+28e45720 0.0 100351
30 july, fri
fri3000:00+28ne22740 0.0 100416
03:00+28nne22680 0.0 100412
06:00+28nnw33530 0.0 100315
09:00+28wnw55580 0.0 100469
12:00+28w55610 0.0 100357
15:00+31w79520 0.0 100260
18:00+30wsw44610 0.0 100136
21:00+28ne22820 0.0 100217
31 july, sat
sat3100:00+28ene44740 0.0 100343
03:00+28nnw11670 0.0 100311
06:00+28nw22600 0.0 100213
09:00+28wnw22580 0.0 100317
12:00+29w55630 0.0 100357
15:00+31wsw44570 0.0 100237
18:00+30ne11630 0.0 100118
21:00+28ene33780 0.0 100335
1 august, sun
sun100:00+28ne44730 0.0 100435
03:00+28wnw44630 0.0 100335
06:00+28wnw44630 0.0 100247
09:00+28wnw33670 0.0 100334
12:00+29w44620 0.0 100343
15:00+31wsw66500 0.0 100259
18:00+31s22600 0.0 100125
21:00+28ne22760 0.0 100317